User: anonymous   Login
Location: Cuzcurrita-R�o Tir�n
(42.5415°N, 2.9642°W)
Time: 00:22:24
(UTC+00:00)
Language:

Cosmos 773 Rocket - Orbit

View from above orbital plane
View from above orbital plane
View from above satellite
View from above satellite

Ground track
Ground track

The orbit data is extracted from the following two-line orbital elements,

1 08344U 75094B   21104.36361564 -.00000036  00000-0 -31498-5 0  9997
2 08344  74.0567  70.8948 0022180 338.9356  21.0883 14.39177029386413
Epoch (UTC): 14 April 2021 08:43:36
Eccentricity: 0.0022180
inclination: 74.0567°
perigee height: 745 km
apogee height: 777 km
right ascension of ascending node: 70.8948°
argument of perigee: 338.9356°
revolutions per day: 14.39177029
mean anomaly at epoch: 21.0883°
orbit number at epoch: 38641

The dashed part of the orbit path shows where the satellite is in the earth's shadow,  

DLR